Hillsdale, MI

3:29 AM EST on February 08, 2016 (GMT -0500)
Hillsdale Municipal

Weather History for KJYM - September, 2013

Change the Weather History Date:

Monday, September 30, 2013

  Actual Average Record
Temperature  
Mean Temperature 57 °F -  
Max Temperature 70 °F 66 °F 85 °F (1986)
Min Temperature 44 °F 44 °F 30 °F (1993)
Degree Days  
Heating Degree Days 8    
Growing Degree Days 7 (Base 50)    
Moisture  
Dew Point 52 °F    
Average Humidity 89    
Maximum Humidity 100    
Minimum Humidity 51    
Precipitation  
Precipitation 0.00 in - - ()
Sea Level Pressure  
Sea Level Pressure 29.99 in    
Wind  
Wind Speed 1 mph (SW)    
Max Wind Speed 10 mph    
Max Gust Speed 16 mph    
Visibility 6 miles    
Events Fog    
Averages and records for this station are not official NWS values.
T = Trace of Precipitation, MM = Missing Value Source: NWS Daily Summary

Daily Weather History Graph

Daily Weather History Graph

Search for Another Location

Airport or City:

Trip Planner

Search our weather history database for the weather conditions in past years. The results will help you decide how hot, cold, wet, or windy it might be!

Date:

Astronomy

Sep. 30, 2013 Rise Set
Actual Time 7:34 AM EDT 7:21 PM EDT
Civil Twilight 7:06 AM EDT 7:49 PM EDT
Nautical Twilight 6:34 AM EDT 8:21 PM EDT
Astronomical Twilight 6:01 AM EDT 8:54 PM EDT
Moon 3:07 AM EDT (9/30) 4:54 PM EDT (9/30)
Length of Visible Light 12h 42m
Length of Day
11h 46m
Waning Crescent, 19% of the Moon is Illuminated
Sep 30
Waning Crescent
Oct 4
New
Oct 11
First Quarter
Oct 18
Full
Oct 26
Last Quarter

Hourly Weather History & Observations

Time (EDT) Temp. Dew Point Humidity Pressure Visibility Wind Dir Wind Speed Gust Speed Precip Events Conditions
12:14 AM 53.1 °F 53.1 °F 100% 30.00 in 4.0 mi Calm Calm - N/A   Mostly Cloudy
12:35 AM 53.1 °F 53.1 °F 100% 30.00 in 5.0 mi Calm Calm - N/A   Overcast
12:54 AM 53.1 °F 53.1 °F 100% 30.00 in 4.0 mi Calm Calm - N/A   Mostly Cloudy
1:15 AM 53.1 °F 53.1 °F 100% 30.00 in 2.5 mi Calm Calm - N/A   Mostly Cloudy
1:35 AM 52.3 °F 52.3 °F 100% 30.00 in 1.0 mi Calm Calm - N/A   Overcast
1:54 AM 52.5 °F 52.5 °F 100% 30.00 in 0.8 mi Calm Calm - N/A   Overcast
2:15 AM 50.9 °F 50.9 °F 100% 30.00 in 0.2 mi Calm Calm - N/A Fog Fog
2:34 AM 49.5 °F 49.5 °F 100% 30.00 in 0.2 mi Calm Calm - N/A Fog Fog
2:54 AM 48.9 °F 48.9 °F 100% 30.00 in 0.2 mi Calm Calm - N/A Fog Fog
3:15 AM 48.4 °F 48.4 °F 100% 29.99 in 0.2 mi Calm Calm - N/A Fog Fog
3:34 AM 47.8 °F 47.8 °F 100% 29.99 in 0.2 mi Calm Calm - N/A Fog Fog
3:54 AM 47.5 °F 47.5 °F 100% 29.99 in 0.5 mi Calm Calm - N/A Fog Fog
4:15 AM 46.8 °F 46.6 °F 99% 29.99 in 0.2 mi Calm Calm - N/A Fog Fog
4:34 AM 46.2 °F 46.2 °F 100% 29.99 in 0.2 mi Calm Calm - N/A Fog Fog
4:54 AM 45.7 °F 45.7 °F 100% 29.99 in 0.2 mi Calm Calm - N/A Fog Fog
5:15 AM 45.9 °F 45.9 °F 100% 29.99 in 0.2 mi Calm Calm - N/A Fog Fog
5:34 AM 45.5 °F 45.5 °F 100% 29.99 in 0.2 mi Calm Calm - N/A Fog Fog
5:55 AM 45.3 °F 45.3 °F 100% 29.99 in 0.2 mi Calm Calm - N/A Fog Fog
6:15 AM 45.5 °F 45.5 °F 100% 29.99 in 0.2 mi Calm Calm - N/A Fog Fog
6:34 AM 45.0 °F 45.0 °F 100% 30.00 in 0.2 mi Calm Calm - N/A Fog Fog
6:55 AM 44.6 °F 44.6 °F 100% 30.00 in 0.2 mi Calm Calm - N/A Fog Fog
7:14 AM 45.1 °F 45.1 °F 100% 30.01 in 0.2 mi Calm Calm - N/A Fog Fog
7:35 AM 45.0 °F 45.0 °F 100% 30.02 in 0.2 mi Calm Calm - N/A Fog Fog
7:54 AM 45.3 °F 45.3 °F 100% 30.02 in 0.2 mi Calm Calm - N/A Fog Fog
8:15 AM 46.8 °F 46.6 °F 99% 30.03 in 0.2 mi Calm Calm - N/A Fog Fog
8:35 AM 50.2 °F 50.2 °F 100% 30.03 in 0.2 mi Calm Calm - N/A Fog Fog
8:54 AM 52.9 °F 52.7 °F 99% 30.03 in 0.2 mi Calm Calm - N/A Fog Fog
9:15 AM 53.6 °F 53.6 °F 100% 30.03 in 0.2 mi Calm Calm - N/A Fog Fog
9:35 AM 54.1 °F 54.1 °F 100% 30.03 in 0.2 mi Calm Calm - N/A Fog Fog
9:54 AM 54.9 °F 54.9 °F 100% 30.03 in 0.2 mi Calm Calm - N/A Fog Fog
10:15 AM 56.1 °F 56.1 °F 100% 30.03 in 0.2 mi Calm Calm - N/A Fog Fog
10:34 AM 57.2 °F 57.2 °F 100% 30.03 in 0.5 mi Calm Calm - N/A Fog Fog
10:54 AM 57.7 °F 57.7 °F 100% 30.02 in 3.0 mi Calm Calm - N/A   Overcast
11:15 AM 59.7 °F 59.7 °F 100% 30.02 in 5.0 mi Calm Calm - N/A   Mostly Cloudy
11:34 AM 59.7 °F 59.7 °F 100% 30.01 in 10.0 mi South 3.5 mph - N/A   Mostly Cloudy
11:54 AM 59.9 °F 59.9 °F 100% 30.01 in 10.0 mi SSW 3.5 mph - N/A   Scattered Clouds
12:14 PM 61.2 °F 61.2 °F 100% 30.00 in 10.0 mi South 5.8 mph - N/A   Scattered Clouds
12:34 PM 61.3 °F 60.8 °F 98% 30.01 in 10.0 mi SSW 4.6 mph - N/A   Scattered Clouds
12:55 PM 61.9 °F 61.2 °F 97% 30.01 in 10.0 mi South 8.1 mph - N/A   Mostly Cloudy
1:14 PM 63.7 °F 62.8 °F 97% 30.00 in 10.0 mi SSW 5.8 mph - N/A   Mostly Cloudy
1:34 PM 65.8 °F 58.1 °F 76% 30.00 in 10.0 mi WSW 6.9 mph - N/A   Mostly Cloudy
1:55 PM 64.9 °F 56.8 °F 75% 30.00 in 10.0 mi Calm Calm - N/A   Mostly Cloudy
2:14 PM 66.7 °F 56.5 °F 70% 29.98 in 10.0 mi South 10.4 mph - N/A   Mostly Cloudy
2:35 PM 66.0 °F 55.6 °F 69% 29.97 in 10.0 mi South 8.1 mph - N/A   Mostly Cloudy
2:55 PM 68.7 °F 54.3 °F 60% 29.96 in 10.0 mi SW 9.2 mph 16.1 mph N/A   Mostly Cloudy
3:14 PM 69.6 °F 53.4 °F 56% 29.96 in 10.0 mi SW 9.2 mph - N/A   Scattered Clouds
3:35 PM 69.1 °F 53.8 °F 58% 29.95 in 10.0 mi SW 9.2 mph - N/A   Scattered Clouds
3:54 PM 69.3 °F 54.0 °F 58% 29.94 in 10.0 mi SW 3.5 mph - N/A   Scattered Clouds
4:14 PM 69.6 °F 53.6 °F 57% 29.95 in 10.0 mi SSW 5.8 mph - N/A   Mostly Cloudy
4:35 PM 70.0 °F 52.3 °F 53% 29.95 in 10.0 mi SW 5.8 mph - N/A   Mostly Cloudy
4:54 PM 69.8 °F 52.2 °F 53% 29.95 in 10.0 mi SW 4.6 mph - N/A   Mostly Cloudy
5:14 PM 69.4 °F 51.8 °F 53% 29.95 in 10.0 mi West 5.8 mph - N/A   Scattered Clouds
5:35 PM 69.6 °F 51.6 °F 53% 29.95 in 10.0 mi WSW 5.8 mph - N/A   Scattered Clouds
5:54 PM 69.4 °F 50.4 °F 51% 29.95 in 10.0 mi WSW 4.6 mph - N/A   Scattered Clouds
6:14 PM 68.5 °F 50.9 °F 53% 29.94 in 10.0 mi West 3.5 mph - N/A   Clear
6:35 PM 68.0 °F 51.3 °F 55% 29.95 in 10.0 mi WSW 4.6 mph - N/A   Clear
6:54 PM 66.2 °F 52.3 °F 61% 29.95 in 10.0 mi Calm Calm - N/A   Clear
7:15 PM 63.1 °F 53.8 °F 71% 29.96 in 10.0 mi Calm Calm - N/A   Clear
7:35 PM 59.0 °F 54.9 °F 86% 29.96 in 10.0 mi Calm Calm - N/A   Clear
7:54 PM 56.5 °F 54.1 °F 92% 29.96 in 10.0 mi Calm Calm - N/A   Clear
8:15 PM 54.9 °F 53.4 °F 95% 29.96 in 10.0 mi Calm Calm - N/A   Clear
8:34 PM 54.9 °F 53.8 °F 96% 29.97 in 10.0 mi Calm Calm - N/A   Clear
8:54 PM 54.0 °F 53.1 °F 97% 29.97 in 10.0 mi Calm Calm - N/A   Clear
9:15 PM 52.2 °F 51.4 °F 97% 29.97 in 10.0 mi Calm Calm - N/A   Clear
9:34 PM 51.4 °F 51.3 °F 99% 29.97 in 10.0 mi Calm Calm - N/A   Clear
9:54 PM 51.1 °F 50.7 °F 99% 29.98 in 10.0 mi Calm Calm - N/A   Clear
10:15 PM 50.7 °F 50.4 °F 99% 29.98 in 10.0 mi Calm Calm - N/A   Clear
10:34 PM 50.7 °F 50.5 °F 99% 29.98 in 10.0 mi Calm Calm - N/A   Clear
10:54 PM 50.7 °F 50.5 °F 99% 29.97 in 10.0 mi SW 3.5 mph - N/A   Clear
11:15 PM 50.0 °F 49.5 °F 98% 29.97 in 10.0 mi Calm Calm - N/A   Clear
11:34 PM 51.4 °F 51.3 °F 99% 29.98 in 10.0 mi Calm Calm - N/A   Clear
11:54 PM 50.4 °F 50.0 °F 99% 29.98 in 7.0 mi Calm Calm - N/A   Clear